[[[{"header":{"parameterUnit":"kt","parameterCategory":2,"dx":1,"dy":1,"la1":30.253999710083008,"la2":30.299108505249023,"lo1":-89.0895004272461,"lo2":-89.04439544677734,"nx":28,"ny":28,"refTime":"2022-10-24T21:00:00:Z","depth":0,"parameterNumber":1,"parameterNumberName":"U-component_of_WINDS"},"data":[2.9497,2.9521,2.9526,2.9557,2.9567,2.9589,2.9598,2.9611,2.9623,2.965,2.9666,2.9674,2.9687,2.9709,2.9727,2.973,2.9736,2.9743,2.9745,2.9712,2.9708,2.9704,2.9698,2.9745,2.9745,2.9777,2.9777,2.9777,2.9478,2.9488,2.9505,2.9525,2.954,2.9538,2.9554,2.9567,2.9586,2.96,2.9616,2.964,2.9659,2.967,2.9689,2.9701,2.97,2.9706,2.9704,2.9706,2.9672,2.9665,2.9707,2.9707,2.9707,2.9707,2.9707,2.9707,2.9445,2.9459,2.9473,2.9491,2.9503,2.9516,2.953,2.9538,2.9555,2.9575,2.9577,2.9598,2.9612,2.9636,2.9645,2.9663,2.9656,2.9663,2.9665,2.9666,2.9667,2.9621,2.9666,2.9666,2.9666,2.9666,2.9666,0,2.9421,2.9424,2.944,2.9458,2.9471,2.9485,2.9498,2.9507,2.9513,2.9526,2.9545,2.9557,2.9581,2.9599,2.9617,2.9624,2.962,2.962,2.9625,2.9623,2.9621,2.9622,2.9566,2.9618,2.9617,2.9617,2.9617,2.9617,2.9387,2.9402,2.9418,2.9429,2.9436,2.9453,2.9464,2.9467,2.9478,2.9495,2.9507,2.9525,2.954,2.957,2.9577,2.9594,2.9591,2.9611,2.9593,2.9593,2.959,2.9589,2.9591,2.9613,2.9613,2.9614,2.9614,0,2.9368,2.9373,2.9398,2.9411,2.9415,2.943,2.9442,2.9455,2.946,2.948,2.9484,2.9491,2.9509,2.9513,2.9534,2.9535,2.9563,2.9561,2.9559,2.9558,2.9575,2.9573,2.9631,2.9639,2.9592,2.9592,2.9593,0,2.934,2.9359,2.9366,2.9379,2.9402,2.9403,2.9425,2.9431,2.9441,2.9456,2.9453,2.9467,2.9468,2.9484,2.9485,2.9508,2.9512,2.9514,2.9513,2.9513,2.9513,2.9516,2.9513,2.9513,2.9512,2.9512,2.9512,0,2.9307,2.9332,2.9355,2.9361,2.9375,2.9386,2.9392,2.9402,2.9411,2.9425,2.9431,2.9446,2.9454,2.9466,2.9467,2.9455,2.9496,2.9479,2.9497,2.9497,2.9503,2.9502,2.9555,2.9512,2.9511,2.9511,2.9511,0,2.9284,2.9296,2.9328,2.9339,2.9345,2.936,2.9374,2.9387,2.9398,2.9399,2.9409,2.9405,2.9425,2.9409,2.9437,2.9421,2.943,2.9433,2.9434,2.9433,2.9414,2.9442,2.9495,2.9499,2.9438,2.9437,2.9437,0,2.9245,2.9277,2.9277,2.9306,2.9321,2.9315,2.9331,2.934,2.9342,2.9356,2.9359,2.9373,2.9361,2.9365,2.9379,2.9382,2.9403,2.938,2.9398,2.9399,2.9394,2.9443,2.9449,2.9484,2.9429,2.943,2.943,0,2.9214,2.9229,2.9234,2.924,2.9251,2.9262,2.9281,2.9295,2.9303,2.9313,2.9328,2.9348,2.934,2.9346,2.9343,2.9357,2.9389,2.9346,2.9346,2.9353,2.9425,2.9431,2.9437,2.9384,2.9385,2.9386,2.9424,0,2.9178,2.9192,2.9206,2.9218,2.9228,2.9245,2.9245,2.9255,2.9252,2.9252,2.9275,2.928,2.9292,2.9298,2.9294,2.9325,2.9319,2.931,2.9291,2.9323,2.9336,2.9341,2.9273,2.9273,2.9272,2.9272,0,0,2.9139,2.9159,2.9156,2.9172,2.9179,2.917,2.9188,2.9194,2.9204,2.921,2.92,2.9227,2.9231,2.9257,2.9267,2.9272,2.9277,2.9264,2.9308,2.9312,2.9316,2.9329,2.9335,2.9271,2.9271,2.9271,2.9271,0,2.9124,2.9128,2.9146,2.9152,2.916,2.9159,2.9164,2.9169,2.917,2.919,2.918,2.9193,2.9213,2.9218,2.9223,2.9263,2.9253,2.9267,2.9288,2.9304,2.9308,2.9313,2.9327,2.9332,2.9269,2.9269,2.927,0,2.9093,2.9097,2.9105,2.9119,2.9123,2.9137,2.9119,2.9134,2.9144,2.9129,2.9149,2.9151,2.9157,2.9181,2.9192,2.9182,2.9231,2.9215,2.9217,2.9217,2.9233,2.9238,2.9243,2.9177,2.9176,2.9176,0,0,2.908,2.9093,2.9095,2.9115,2.9119,2.9117,2.9124,2.912,2.9125,2.9127,2.9128,2.9134,2.9146,2.9153,2.9164,2.919,2.9191,2.9203,2.9208,2.9211,2.9213,2.9229,2.9235,2.9175,2.9175,2.9175,0,0,2.9073,2.9077,2.9071,2.9094,2.9101,2.9103,2.9115,2.9109,2.9117,2.9115,2.9107,2.9108,2.913,2.9131,2.9116,2.9157,2.9139,2.9142,2.9154,2.916,2.9164,2.9162,2.9095,0,0,0,0,0,2.9056,2.9077,2.9072,2.9075,2.9091,2.9107,2.9108,2.9103,2.9091,2.9101,2.9101,2.909,2.9122,2.9108,2.9112,2.9128,2.916,2.9162,2.9165,2.9187,2.9192,2.9197,0,0,0,0,0,0,2.9057,2.9061,2.9071,2.9075,2.9078,2.9106,2.9084,2.9083,2.909,2.9087,2.909,2.909,2.9085,2.9106,2.9109,2.9125,2.9094,2.9161,2.9163,2.9165,2.9189,2.9193,2.9197,0,0,0,0,0,2.9058,2.9061,2.9088,2.9074,2.9077,2.9075,2.9084,2.9083,2.9087,2.9086,2.9085,2.9082,2.9085,2.9088,2.9108,2.9123,2.9092,2.9093,2.9162,2.9164,2.9166,2.9191,0,0,0,0,0,0,2.9059,2.9061,2.9088,2.9089,2.9065,2.9073,2.9074,2.9082,2.9085,2.9084,2.9077,2.9075,2.9086,2.9088,2.9089,2.9123,2.909,2.9091,2.9092,2.9164,2.9165,2.9166,0,0,0,0,0,0,2.9059,2.9061,2.9088,2.9077,2.9077,2.9072,2.9073,2.9088,2.9085,2.9076,2.9074,2.9076,2.9083,2.9088,2.9089,2.9114,2.9089,2.909,2.9091,2.9091,2.9165,2.9166,0,0,0,0,0,0,2.906,2.9062,2.9077,2.9076,2.9076,2.9083,2.9086,2.9101,2.9076,2.9076,2.9074,2.9073,2.9084,2.9085,2.9089,2.9113,2.9114,2.9089,2.909,2.909,2.9091,0,0,0,0,0,0,0,2.906,2.9047,2.9084,2.9076,2.9075,2.9095,2.9096,2.9096,2.9076,2.9075,2.9074,2.9073,2.9082,2.9084,2.9085,2.9113,0,0,2.9089,2.9089,0,0,0,0,0,0,0,0,2.9046,2.9047,2.9084,2.9084,2.9084,2.9095,2.9096,2.9096,2.9076,2.9075,2.9074,2.9073,2.9083,2.9084,2.9085,0,0,0,0,0,0,0,0,0,0,0,0,0,0,0,2.9084,2.9084,0,2.9095,2.9096,2.9096,2.9076,2.9075,2.9074,2.9074,2.9083,2.9084,2.9085,0,0,0,0,0,0,0,0,0,0,0,0,0,0,0,0,0,0,0,0,0,0,0,0,0,0,0,0,0,0,0,0,0,0,0,0,0,0,0,0,0,0,0,0,0,0,0,0,0,0,0,0,0,0,0,0,0,0,0,0,0,0,0,0,0,0,0,0,0]}],[{"header":{"parameterUnit":"kt","parameterCategory":2,"dx":1,"dy":1,"la1":30.253999710083008,"la2":30.299108505249023,"lo1":-89.0895004272461,"lo2":-89.04439544677734,"nx":28,"ny":28,"refTime":"2022-10-24T21:00:00:Z","depth":0,"parameterNumber":2,"parameterNumberName":"V-component_of_WINDS"},"data":[-12.6758,-12.7076,-12.7128,-12.7512,-12.7622,-12.7893,-12.8005,-12.8154,-12.8284,-12.8608,-12.8802,-12.888,-12.9026,-12.9265,-12.9474,-12.9503,-12.9588,-12.9665,-12.9686,-12.9301,-12.9251,-12.9203,-12.9133,-12.9683,-12.9684,-13.0078,-13.0081,-13.0084,-12.6471,-12.6585,-12.6804,-12.705,-12.7237,-12.7194,-12.7383,-12.7541,-12.7782,-12.7944,-12.8138,-12.8425,-12.8656,-12.8777,-12.9006,-12.9151,-12.9141,-12.9209,-12.9199,-12.9222,-12.8813,-12.8738,-12.9213,-12.9213,-12.9213,-12.9213,-12.9213,-12.9213,-12.5963,-12.6152,-12.6331,-12.6569,-12.6706,-12.6869,-12.7056,-12.7151,-12.7362,-12.7612,-12.7626,-12.7898,-12.8066,-12.8363,-12.8473,-12.8683,-12.8615,-12.8703,-12.8726,-12.8747,-12.8766,-12.8191,-12.8723,-12.8722,-12.8721,-12.872,-12.8719,0,-12.5606,-12.5637,-12.585,-12.6079,-12.6254,-12.6435,-12.6608,-12.6725,-12.6798,-12.6969,-12.722,-12.7372,-12.7669,-12.7907,-12.813,-12.8227,-12.8194,-12.8195,-12.8256,-12.8255,-12.8225,-12.8245,-12.7575,-12.8179,-12.8175,-12.8172,-12.8169,-12.8168,-12.5098,-12.5312,-12.5523,-12.5666,-12.5773,-12.6002,-12.6148,-12.6197,-12.6349,-12.6566,-12.6727,-12.6967,-12.7162,-12.755,-12.7652,-12.7872,-12.7858,-12.8084,-12.789,-12.788,-12.7862,-12.785,-12.7871,-12.812,-12.8126,-12.8131,-12.8135,0,-12.4807,-12.4888,-12.5235,-12.5421,-12.5474,-12.5695,-12.5852,-12.604,-12.6109,-12.6377,-12.6442,-12.6551,-12.6793,-12.6859,-12.7147,-12.7174,-12.7532,-12.7512,-12.7475,-12.7475,-12.7684,-12.7663,-12.8351,-12.8443,-12.7873,-12.7878,-12.7882,0,-12.4405,-12.4683,-12.4788,-12.4985,-12.5295,-12.5338,-12.5643,-12.5733,-12.588,-12.6092,-12.6068,-12.6265,-12.6319,-12.6525,-12.6565,-12.6869,-12.6922,-12.696,-12.6968,-12.6964,-12.6959,-12.7043,-12.7016,-12.6975,-12.6971,-12.6968,-12.6965,0,-12.3941,-12.4322,-12.4643,-12.4743,-12.4968,-12.5116,-12.5216,-12.5381,-12.5522,-12.5715,-12.5806,-12.6026,-12.6147,-12.6315,-12.6365,-12.6231,-12.6737,-12.6564,-12.6776,-12.6776,-12.6885,-12.6878,-12.747,-12.6961,-12.696,-12.6959,-12.6957,0,-12.3628,-12.3828,-12.4281,-12.4468,-12.4565,-12.4775,-12.4998,-12.5193,-12.5368,-12.5408,-12.5559,-12.555,-12.5822,-12.5645,-12.6019,-12.5831,-12.595,-12.6011,-12.6028,-12.6056,-12.5857,-12.6183,-12.674,-12.6801,-12.6082,-12.6074,-12.6068,0,-12.3076,-12.3554,-12.3596,-12.4024,-12.4254,-12.4214,-12.4447,-12.4604,-12.4677,-12.4879,-12.4957,-12.5186,-12.5069,-12.515,-12.5326,-12.5415,-12.5658,-12.5383,-12.567,-12.568,-12.5627,-12.614,-12.6207,-12.6611,-12.5975,-12.5985,-12.5992,0,-12.2657,-12.2931,-12.3005,-12.312,-12.3337,-12.3529,-12.3796,-12.4036,-12.4169,-12.4346,-12.457,-12.4893,-12.4817,-12.4951,-12.4966,-12.5146,-12.5494,-12.504,-12.5044,-12.512,-12.5934,-12.5997,-12.6064,-12.5464,-12.5475,-12.5484,-12.5919,0,-12.2168,-12.2418,-12.262,-12.2875,-12.3034,-12.3305,-12.338,-12.3536,-12.3536,-12.3607,-12.3936,-12.408,-12.4319,-12.4412,-12.4413,-12.4805,-12.4749,-12.4665,-12.4498,-12.4834,-12.4979,-12.5038,-12.4276,-12.4272,-12.4268,-12.4265,0,0,-12.1619,-12.1979,-12.2016,-12.2279,-12.2415,-12.237,-12.2653,-12.2779,-12.3035,-12.3129,-12.3036,-12.3513,-12.3633,-12.4024,-12.4135,-12.4231,-12.4307,-12.4186,-12.4674,-12.4719,-12.4761,-12.4915,-12.4975,-12.4258,-12.4257,-12.4255,-12.4254,0,-12.1457,-12.1588,-12.1869,-12.2003,-12.2202,-12.2264,-12.2332,-12.2519,-12.2578,-12.2902,-12.2856,-12.3061,-12.344,-12.3574,-12.3691,-12.4141,-12.4094,-12.4208,-12.4428,-12.4633,-12.4683,-12.4728,-12.4889,-12.4946,-12.4245,-12.4245,-12.4246,0,-12.1059,-12.12,-12.1344,-12.1653,-12.1783,-12.2019,-12.1864,-12.212,-12.2295,-12.2227,-12.2548,-12.2637,-12.2821,-12.3182,-12.3346,-12.3266,-12.3896,-12.3709,-12.3735,-12.3755,-12.3956,-12.4017,-12.407,-12.3362,-12.3358,-12.3355,0,0,-12.0907,-12.114,-12.1305,-12.1624,-12.1709,-12.1805,-12.1937,-12.1952,-12.2122,-12.219,-12.2303,-12.2467,-12.2687,-12.2831,-12.3041,-12.3427,-12.3467,-12.3597,-12.3639,-12.3673,-12.3711,-12.3921,-12.3981,-12.3343,-12.3342,-12.3342,0,0,-12.0834,-12.104,-12.1012,-12.1392,-12.1557,-12.1738,-12.1928,-12.1897,-12.2095,-12.2071,-12.2104,-12.2149,-12.2487,-12.2575,-12.2398,-12.2982,-12.2815,-12.2859,-12.2913,-12.2966,-12.3007,-12.2979,-12.2255,0,0,0,0,0,-12.0707,-12.1014,-12.0987,-12.1062,-12.1451,-12.1753,-12.1803,-12.184,-12.1722,-12.1872,-12.1961,-12.1902,-12.2486,-12.233,-12.2402,-12.2599,-12.3179,-12.3208,-12.3236,-12.3396,-12.3451,-12.3498,0,0,0,0,0,0,-12.0737,-12.0829,-12.0979,-12.1173,-12.126,-12.1743,-12.1551,-12.1569,-12.1707,-12.1691,-12.1887,-12.1908,-12.1942,-12.2295,-12.236,-12.2547,-12.2233,-12.3191,-12.3215,-12.3237,-12.3415,-12.346,-12.3499,0,0,0,0,0,-12.0761,-12.0835,-12.145,-12.1168,-12.1245,-12.1368,-12.1539,-12.1553,-12.166,-12.18,-12.1819,-12.1675,-12.1947,-12.2003,-12.2334,-12.2517,-12.2189,-12.2213,-12.3207,-12.3226,-12.3243,-12.3437,0,0,0,0,0,0,-12.0779,-12.0848,-12.1466,-12.149,-12.1056,-12.1341,-12.1387,-12.154,-12.176,-12.1783,-12.1588,-12.1573,-12.1954,-12.1996,-12.2039,-12.2505,-12.2153,-12.2178,-12.2193,-12.3221,-12.3236,-12.325,0,0,0,0,0,0,-12.0809,-12.0869,-12.1479,-12.1334,-12.1342,-12.1317,-12.1358,-12.1643,-12.1763,-12.1535,-12.153,-12.1579,-12.1886,-12.1993,-12.2026,-12.247,-12.2126,-12.2149,-12.2165,-12.2175,-12.3234,-12.3246,0,0,0,0,0,0,-12.0835,-12.0887,-12.1328,-12.1335,-12.1341,-12.1617,-12.1568,-12.1964,-12.1643,-12.1526,-12.1615,-12.1602,-12.1885,-12.1919,-12.2017,-12.2447,-12.2464,-12.2127,-12.2142,-12.2154,-12.2161,0,0,0,0,0,0,0,-12.0856,-12.0499,-12.1322,-12.1335,-12.134,-12.1716,-12.1723,-12.173,-12.1641,-12.1629,-12.1618,-12.1608,-12.1994,-12.2019,-12.2045,-12.2429,0,0,-12.2124,-12.2136,0,0,0,0,0,0,0,0,-12.0478,-12.0494,-12.1323,-12.1328,-12.1333,-12.1717,-12.1723,-12.1728,-12.1639,-12.163,-12.1621,-12.1612,-12.2001,-12.2021,-12.2042,0,0,0,0,0,0,0,0,0,0,0,0,0,0,0,-12.1323,-12.1327,0,-12.1718,-12.1723,-12.1727,-12.1637,-12.163,-12.1623,-12.1616,-12.2006,-12.2023,-12.204,0,0,0,0,0,0,0,0,0,0,0,0,0,0,0,0,0,0,0,0,0,0,0,0,0,0,0,0,0,0,0,0,0,0,0,0,0,0,0,0,0,0,0,0,0,0,0,0,0,0,0,0,0,0,0,0,0,0,0,0,0,0,0,0,0,0,0,0,0]}]]]